Sarasota, FL

1:00 PM EDT on April 20, 2018 (GMT -0400)
Sarasota-bradenton

Weather History for KSRQ - January, 2006

Change the Weather History Date:

Monday, January 23, 2006

  Actual Average Record
Temperature  
Mean Temperature 77 °F 62 °F  
Max Temperature 83 °F 71 °F 87 °F (1990)
Min Temperature 70 °F 52 °F 28 °F (1985)
Degree Days  
Heating Degree Days 0 5  
Month to date heating degree days 89 124  
Since 1 July heating degree days 247 279  
Cooling Degree Days 12 2  
Month to date cooling degree days 69 46  
Year to date cooling degree days 69 46  
Growing Degree Days 26 (Base 50)    
Moisture  
Dew Point 66 °F    
Average Humidity 76    
Maximum Humidity 90    
Minimum Humidity 55    
Precipitation  
Precipitation 0.00 in 0.06 in 2.08 in (1958)
Month to date precipitation 6.05 2.04  
Year to date precipitation 6.05 2.04  
Sea Level Pressure  
Sea Level Pressure 30.11 in    
Wind  
Wind Speed 10 mph (SE)    
Max Wind Speed 17 mph    
Max Gust Speed 22 mph    
Visibility 10 miles    
Events      
T = Trace of Precipitation, MM = Missing Value Source: NWS Daily Summary

Daily Weather History Graph

Daily Weather History Graph

Search for Another Location

Airport or City:

Astronomy

Jan. 23, 2006 Rise Set
Actual Time 7:20 AM EST 6:04 PM EST
Civil Twilight 6:55 AM EST 6:29 PM EST
Nautical Twilight 6:26 AM EST 6:57 PM EST
Astronomical Twilight 5:59 AM EST 7:25 PM EST
Moon 1:26 AM EST (1/23) 12:25 PM EST (1/23)
Length of Visible Light 11h 33m
Length of Day
10h 44m
Last Quarter, 39% of the Moon is Illuminated
Jan 23
Last Quarter
Jan 29
New
Feb 5
First Quarter
Feb 12
Full
Feb 21
Last Quarter

Hourly Weather History & Observations

Time (EST) Temp. Heat Index Dew Point Humidity Pressure Visibility Wind Dir Wind Speed Gust Speed Precip Events Conditions
12:53 AM 71.1 °F - 66.0 °F 84% 30.12 in 10.0 mi East 8.1 mph - N/A   Overcast
1:46 AM 71.6 °F - 66.2 °F 83% 30.13 in 10.0 mi East 5.8 mph - N/A   Overcast
1:53 AM 71.1 °F - 66.9 °F 87% 30.12 in 10.0 mi East 5.8 mph - N/A   Overcast
2:04 AM 71.6 °F - 66.2 °F 83% 30.12 in 10.0 mi East 4.6 mph - N/A   Overcast
2:19 AM 71.6 °F - 66.2 °F 83% 30.12 in 10.0 mi East 4.6 mph - N/A   Overcast
2:35 AM 71.6 °F - 66.2 °F 83% 30.11 in 10.0 mi East 5.8 mph - N/A   Overcast
2:53 AM 72.0 °F - 66.9 °F 84% 30.11 in 10.0 mi East 6.9 mph - N/A   Overcast
3:24 AM 71.6 °F - 66.2 °F 83% 30.11 in 10.0 mi East 5.8 mph - N/A   Overcast
3:53 AM 72.0 °F - 66.9 °F 84% 30.11 in 10.0 mi East 8.1 mph - N/A   Overcast
4:46 AM 71.6 °F - 66.2 °F 83% 30.10 in 9.0 mi East 8.1 mph - N/A   Overcast
4:53 AM 71.1 °F - 66.9 °F 87% 30.10 in 9.0 mi East 6.9 mph - N/A   Mostly Cloudy
5:26 AM 71.6 °F - 66.2 °F 83% 30.10 in 8.0 mi East 8.1 mph - N/A   Mostly Cloudy
5:53 AM 71.1 °F - 66.9 °F 87% 30.10 in 8.0 mi East 6.9 mph - N/A   Overcast
6:53 AM 70.0 °F - 66.9 °F 90% 30.09 in 8.0 mi East 9.2 mph - N/A   Mostly Cloudy
7:53 AM 71.1 °F - 66.9 °F 87% 30.11 in 7.0 mi ESE 8.1 mph - N/A   Mostly Cloudy
8:53 AM 73.9 °F - 68.0 °F 82% 30.13 in 9.0 mi SE 11.5 mph - N/A   Overcast
9:17 AM 73.4 °F - 66.2 °F 78% 30.14 in 10.0 mi SE 12.7 mph - N/A   Overcast
9:28 AM 75.2 °F - 66.2 °F 73% 30.15 in 10.0 mi ESE 12.7 mph - N/A   Overcast
9:53 AM 75.9 °F - 68.0 °F 76% 30.15 in 10.0 mi SE 13.8 mph - N/A   Mostly Cloudy
10:49 AM 78.8 °F - 66.2 °F 65% 30.15 in 10.0 mi SSE 13.8 mph - N/A   Overcast
10:53 AM 79.0 °F - 66.9 °F 66% 30.15 in 10.0 mi SE 12.7 mph - N/A   Overcast
11:30 AM 80.6 °F 82.7 °F 66.2 °F 61% 30.15 in 10.0 mi South 13.8 mph - N/A   Overcast
11:53 AM 81.0 °F 83.0 °F 66.0 °F 60% 30.14 in 10.0 mi South 12.7 mph - N/A   Mostly Cloudy
12:53 PM 81.0 °F 83.0 °F 66.0 °F 60% 30.11 in 10.0 mi South 13.8 mph - N/A   Scattered Clouds
1:53 PM 82.0 °F 83.4 °F 64.0 °F 54% 30.08 in 10.0 mi South 16.1 mph - N/A   Clear
2:53 PM 81.0 °F 82.7 °F 64.9 °F 58% 30.06 in 10.0 mi South 13.8 mph - N/A   Scattered Clouds
3:53 PM 79.0 °F - 64.9 °F 62% 30.06 in 10.0 mi South 10.4 mph - N/A   Scattered Clouds
4:53 PM 79.0 °F - 64.0 °F 60% 30.06 in 10.0 mi South 15.0 mph - N/A   Clear
5:53 PM 75.9 °F - 64.0 °F 67% 30.06 in 10.0 mi South 12.7 mph - N/A   Clear
6:53 PM 73.9 °F - 64.9 °F 73% 30.06 in 10.0 mi South 10.4 mph - N/A   Clear
7:53 PM 72.0 °F - 64.9 °F 78% 30.07 in 10.0 mi SSW 8.1 mph - N/A   Clear
8:53 PM 71.1 °F - 64.9 °F 81% 30.09 in 10.0 mi SSW 6.9 mph - N/A   Clear
9:53 PM 71.1 °F - 64.9 °F 81% 30.09 in 10.0 mi SSW 6.9 mph - N/A   Clear
10:53 PM 71.1 °F - 64.9 °F 81% 30.09 in 10.0 mi South 8.1 mph - N/A   Clear
11:53 PM 71.1 °F - 64.9 °F 81% 30.08 in 10.0 mi SSW 6.9 mph - N/A   Clear